Regional Weather Roundup
Issued by NWS

Home | Current Version | Previous Version | Text Only | Print | Product List | Glossary Off
Versions: 1 2 3 4 5 6 7 8 9 10 11 12 13 14 15 16 17 18 19 20 21 22 23 24 25 26 27 28 29 30 31 32 33 34 35 36 37 38 39 40 41 42 43 44 45 46 47 48 49 50

000
ASUS43 KFSD 171902
RWRSD

WEATHER ROUNDUP FOR SOUTH DAKOTA
NATIONAL WEATHER SERVICE SIOUX FALLS SD
200 PM CDT TUE OCT 17 2017

NOTE: "FAIR" INDICATES FEW OR NO CLOUDS BELOW 12,000 FEET WITH NO
SIGNIFICANT WEATHER AND/OR OBSTRUCTIONS TO VISIBILITY.


SDZ001>005-009-010-012>017-172000-
NORTHWEST AND NORTH CENTRAL SOUTH DAKOTA

CITY           SKY/WX    TMP DP  RH WIND       PRES   REMARKS
BUFFALO          N/A     76  20  12 W21       29.87F
FAITH            N/A     78  21  12 W13       29.93F
MOBRIDGE       SUNNY     77  37  23 S14       29.86F
$$

SDZ012>016-024>037-041>051-057-063-072>074-172000-
SOUTHWEST AND SOUTH CENTRAL SOUTH DAKOTA

CITY           SKY/WX    TMP DP  RH WIND       PRES   REMARKS
RAPID CTY ARPT SUNNY     75  32  20 SE12      29.96F
PIERRE         SUNNY     70  35  27 SW7       29.93F
CUSTER         SUNNY     67  18  15 VRB6      30.07F
ELLSWORTH AFB  SUNNY     76  28  17 S13       29.95F
PHILIP         SUNNY     78  32  18 SW8       29.94F
PINE RIDGE     SUNNY     74  23  15 W9        30.02F
SPEARFISH      FAIR      73  23  15 CALM      29.99F
WINNER         FAIR      79  40  24 S10       29.98F
$$

SDZ004>011-016>023-039-040-172000-
NORTHEAST SOUTH DAKOTA

CITY           SKY/WX    TMP DP  RH WIND       PRES   REMARKS
ABERDEEN       SUNNY     75  41  29 S16G25    29.90F
WATERTOWN      SUNNY     73  38  27 SW15      29.95F
BROOKINGS      SUNNY     74  36  25 W12       29.98F
SISSETON         N/A     75  37  25 SW14      29.89F
$$

SDZ017-020-022-023-036>040-048>070-172000-
SOUTHEAST SOUTH DAKOTA

CITY           SKY/WX    TMP DP  RH WIND       PRES   REMARKS
SIOUX FALLS    SUNNY     75  44  33 S8        30.00F
HURON          SUNNY     76  39  26 MISG      29.94F
CHAMBERLAIN    SUNNY     78  43  28 SW8       29.97F
MITCHELL       SUNNY     78  36  21 S13       29.97F
YANKTON        SUNNY     74  45  35 SW6       30.01F
$$

ABBREVIATIONS USED IN REMARKS
   TC - TEMPERATURE IN CELSIUS
  WCI - WIND CHILL INDEX
   HX - HEAT INDEX
  VSB - VISIBILITY





USA.gov is the U.S. government's official web portal to all federal, state and local government web resources and services.